[[{"header":{"parameterUnit":"m.s-1","parameterCategory":1,"la1":30.2991,"la2":30.254,"lo1":-89.0895,"lo2":-89.0444,"dy":0.0017,"dx":0.0017,"nx":28,"ny":28,"refTime":"2023-09-20T03:00:00:Z","depth":0,"parameterNumber":2,"parameterNumberName":"U-component_of_WINDS"},"data":[0,0,0,0,0,0,0,0,0,0,0,0,0,0,0,0,0,0,0,0,0,0,0,0,0,0,0,0,0,0,0,0,0,0,0,0,0,0,0,0,0,0,0,0,0,0,0,0,0,0,0,0,0,0,0,0,0,0,-4.9791,-4.9792,0,-4.9892,-4.9893,-4.9894,-4.976,-4.9755,-4.975,-4.9745,-4.9848,-4.9855,-4.9862,0,0,0,0,0,0,0,0,0,0,0,0,0,-4.9479,-4.9486,-4.979,-4.9792,-4.9793,-4.9892,-4.9893,-4.9894,-4.976,-4.9755,-4.9749,-4.9743,-4.9846,-4.9854,-4.9863,0,0,0,0,0,0,0,0,0,0,0,0,0,-4.9601,-4.9488,-4.979,-4.9738,-4.9734,-4.9891,-4.9893,-4.9895,-4.9762,-4.9754,-4.9747,-4.974,-4.9843,-4.9853,-4.9864,-5.0077,0,0,-4.9897,-4.9902,0,0,0,0,0,0,0,0,-4.9594,-4.9613,-4.9745,-4.9742,-4.9738,-4.9806,-4.9821,-4.9956,-4.9764,-4.9751,-4.9745,-4.9737,-4.984,-4.985,-4.9885,-5.0081,-5.0086,-4.9898,-4.9905,-4.991,-4.9913,0,0,0,0,0,0,0,-4.9586,-4.9607,-4.983,-4.9747,-4.9743,-4.9709,-4.9718,-4.9846,-4.9835,-4.9752,-4.9742,-4.9756,-4.9837,-4.9875,-4.9887,-5.0087,-4.9898,-4.9908,-4.9914,-4.9919,-5.0461,-5.0469,0,0,0,0,0,0,-4.9584,-4.9601,-4.9827,-4.9833,-4.9647,-4.9721,-4.9731,-4.9791,-4.9833,-4.9833,-4.9762,-4.975,-4.986,-4.9874,-4.989,-5.014,-4.9909,-4.992,-4.9926,-5.0453,-5.0463,-5.0471,0,0,0,0,0,0,-4.9578,-4.9605,-4.9823,-4.9715,-4.974,-4.9734,-4.9803,-4.9797,-4.9835,-4.9841,-4.9838,-4.9804,-4.9855,-4.9875,-5.0031,-5.0142,-4.9925,-4.9934,-5.0444,-5.0456,-5.0467,-5.0644,0,0,0,0,0,0,-4.957,-4.9604,-4.9685,-4.9718,-4.9746,-4.9964,-4.9809,-4.9804,-4.9855,-4.9839,-4.9879,-4.9879,-4.9851,-5.0015,-5.0042,-5.0153,-4.9943,-5.0434,-5.045,-5.0463,-5.0628,-5.0661,-5.0688,0,0,0,0,0,-4.9559,-4.9731,-4.969,-4.9718,-4.9848,-4.997,-4.9987,-4.9951,-4.9864,-4.9945,-4.9949,-4.9878,-5.0126,-5.0033,-5.0061,-5.0177,-5.0427,-5.0445,-5.0462,-5.0615,-5.0654,-5.0687,0,0,0,0,0,0,-4.9712,-4.9734,-4.9689,-4.9877,-4.9923,-4.9947,-5.0049,-4.9994,-5.0065,-5.0047,-4.9999,-5.0009,-5.0176,-5.0192,-5.0088,-5.0384,-5.0262,-5.0286,-5.0368,-5.0406,-5.0435,-5.0427,-4.9952,0,0,0,0,0,-4.9767,-4.9866,-4.988,-5.0044,-5.0069,-5.0056,-5.0108,-5.0076,-5.0121,-5.014,-5.0155,-5.0201,-5.0289,-5.0348,-5.0429,-5.063,-5.0636,-5.0724,-5.0754,-5.0778,-5.08,-5.0906,-5.0945,-5.053,-5.053,-5.0529,0,0,-4.9883,-4.9908,-4.9973,-5.0076,-5.0107,-5.0209,-5.0073,-5.0187,-5.0262,-5.0157,-5.0305,-5.0318,-5.0366,-5.0546,-5.0625,-5.0564,-5.0916,-5.0801,-5.0821,-5.0829,-5.0928,-5.0968,-5.1003,-5.0542,-5.054,-5.0538,0,0,-5.0146,-5.0175,-5.0315,-5.0349,-5.0399,-5.0388,-5.0422,-5.0455,-5.046,-5.0608,-5.0531,-5.0619,-5.0773,-5.081,-5.0849,-5.1126,-5.1063,-5.1154,-5.131,-5.1414,-5.1447,-5.1475,-5.1573,-5.1609,-5.1175,-5.1175,-5.1176,0,-5.0284,-5.0435,-5.0393,-5.0513,-5.056,-5.047,-5.0611,-5.0646,-5.072,-5.0754,-5.0685,-5.0874,-5.0901,-5.1087,-5.1154,-5.1189,-5.1225,-5.1149,-5.1445,-5.1474,-5.15,-5.1593,-5.163,-5.1186,-5.1185,-5.1184,-5.1183,0,-5.0601,-5.0707,-5.0814,-5.0888,-5.0947,-5.1076,-5.1054,-5.1118,-5.1082,-5.1079,-5.123,-5.1258,-5.1344,-5.1385,-5.1351,-5.1567,-5.1527,-5.1453,-5.1328,-5.1551,-5.1637,-5.1673,-5.1201,-5.1198,-5.1194,-5.1192,0,0,-5.0964,-5.1012,-5.1052,-5.1084,-5.1132,-5.1213,-5.1338,-5.1421,-5.1477,-5.1531,-5.1634,-5.1766,-5.1697,-5.1741,-5.171,-5.1801,-5.2018,-5.1715,-5.1715,-5.177,-5.2257,-5.2312,-5.2354,-5.1976,-5.1983,-5.1988,-5.2252,0,-5.1226,-5.1443,-5.1409,-5.1618,-5.1714,-5.163,-5.1739,-5.178,-5.178,-5.1861,-5.1861,-5.1955,-5.1857,-5.1883,-5.197,-5.1973,-5.2115,-5.1953,-5.2071,-5.2076,-5.2061,-5.24,-5.2459,-5.2707,-5.2286,-5.2292,-5.2296,0,-5.1561,-5.1627,-5.1847,-5.1878,-5.1918,-5.2016,-5.2089,-5.2169,-5.2213,-5.2206,-5.2256,-5.2208,-5.2332,-5.2206,-5.2376,-5.2267,-5.2313,-5.2322,-5.233,-5.2339,-5.2199,-5.2418,-5.2785,-5.2823,-5.2349,-5.2345,-5.2341,0,-5.1803,-5.1947,-5.2096,-5.2126,-5.2167,-5.2238,-5.2259,-5.2296,-5.2348,-5.2412,-5.2445,-5.2523,-5.2565,-5.2626,-5.26,-5.2511,-5.2775,-5.2646,-5.2772,-5.2773,-5.2831,-5.2828,-5.3211,-5.2862,-5.2862,-5.2861,-5.286,0,-5.2099,-5.2237,-5.2205,-5.2297,-5.2448,-5.2407,-5.2557,-5.2567,-5.2601,-5.2692,-5.2624,-5.2711,-5.2671,-5.2756,-5.2736,-5.2879,-5.2899,-5.2897,-5.289,-5.2903,-5.2903,-5.2932,-5.2914,-5.2871,-5.2869,-5.2867,-5.2865,0,-5.2395,-5.238,-5.2536,-5.2562,-5.2572,-5.2682,-5.2704,-5.2789,-5.2784,-5.2901,-5.2926,-5.2918,-5.3014,-5.2993,-5.3099,-5.3085,-5.3265,-5.3237,-5.325,-5.3243,-5.337,-5.3358,-5.3785,-5.3838,-5.3456,-5.3459,-5.3462,0,-5.2585,-5.2688,-5.2726,-5.2782,-5.2808,-5.29,-5.2953,-5.2916,-5.2974,-5.3032,-5.311,-5.32,-5.327,-5.3427,-5.343,-5.351,-5.3483,-5.3627,-5.3495,-5.3504,-5.3484,-5.3478,-5.3488,-5.3653,-5.3658,-5.3661,-5.3664,0,-5.2924,-5.2911,-5.2989,-5.3066,-5.3131,-5.3189,-5.3241,-5.3291,-5.3259,-5.3327,-5.3424,-5.3479,-5.3586,-5.3676,-5.375,-5.3769,-5.3712,-5.3706,-5.3739,-5.3753,-5.3757,-5.3756,-5.3321,-5.3696,-5.3693,-5.3691,-5.3689,-5.3688,-5.3172,-5.3259,-5.3299,-5.3389,-5.3424,-5.3474,-5.3555,-5.356,-5.364,-5.3725,-5.3698,-5.3809,-5.385,-5.3943,-5.3972,-5.4058,-5.4003,-5.4052,-5.4064,-5.4076,-5.4091,-5.3743,-5.4071,-5.407,-5.4069,-5.4068,-5.4068,0,-5.3506,-5.3527,-5.3611,-5.3685,-5.3756,-5.3695,-5.3749,-5.3812,-5.391,-5.3953,-5.4023,-5.4134,-5.4221,-5.4231,-5.4313,-5.4379,-5.4355,-5.4402,-5.4396,-5.4402,-5.4135,-5.4098,-5.442,-5.442,-5.442,-5.442,-5.442,-5.442,-5.3689,-5.3834,-5.3825,-5.3986,-5.4006,-5.4114,-5.415,-5.4195,-5.4229,-5.4357,-5.4428,-5.4434,-5.4463,-5.4546,-5.4623,-5.4623,-5.4656,-5.4714,-5.4705,-5.4456,-5.4421,-5.4387,-5.4352,-5.4722,-5.4722,-5.4963,-5.4965,-5.4967]},{"header":{"parameterUnit":"m.s-1","parameterCategory":1,"la1":30.2991,"la2":30.254,"lo1":-89.0895,"lo2":-89.0444,"dy":0.0017,"dx":0.0017,"nx":28,"ny":28,"refTime":"2023-09-20T03:00:00:Z","depth":0,"parameterNumber":3,"parameterNumberName":"V-component_of_WINDS"},"data":[0,0,0,0,0,0,0,0,0,0,0,0,0,0,0,0,0,0,0,0,0,0,0,0,0,0,0,0,0,0,0,0,0,0,0,0,0,0,0,0,0,0,0,0,0,0,0,0,0,0,0,0,0,0,0,0,0,0,-0.3217,-0.3218,0,-0.3281,-0.3282,-0.3283,-0.3287,-0.3286,-0.3286,-0.3285,-0.3354,-0.3357,-0.3359,0,0,0,0,0,0,0,0,0,0,0,0,0,-0.3099,-0.3101,-0.3217,-0.3218,-0.3218,-0.3281,-0.3282,-0.3283,-0.3287,-0.3286,-0.3286,-0.3285,-0.3354,-0.3357,-0.336,0,0,0,0,0,0,0,0,0,0,0,0,0,-0.3156,-0.3102,-0.3217,-0.3228,-0.323,-0.3281,-0.3282,-0.3283,-0.3288,-0.3286,-0.3285,-0.3284,-0.3353,-0.3356,-0.336,-0.3405,0,0,-0.3372,-0.3373,0,0,0,0,0,0,0,0,-0.3152,-0.316,-0.3226,-0.3227,-0.3229,-0.3275,-0.3266,-0.3324,-0.3288,-0.3266,-0.3285,-0.3284,-0.3329,-0.3335,-0.3349,-0.3409,-0.3411,-0.3372,-0.3374,-0.3376,-0.3377,0,0,0,0,0,0,0,-0.3149,-0.3157,-0.3242,-0.3227,-0.3229,-0.323,-0.3237,-0.3277,-0.3303,-0.3268,-0.3268,-0.3275,-0.333,-0.3346,-0.3351,-0.3413,-0.3372,-0.3375,-0.3377,-0.3379,-0.3511,-0.3512,0,0,0,0,0,0,-0.3142,-0.3154,-0.324,-0.3244,-0.3187,-0.3233,-0.3241,-0.3262,-0.3302,-0.3308,-0.3276,-0.3275,-0.334,-0.3347,-0.3353,-0.3409,-0.3376,-0.3379,-0.3382,-0.351,-0.3511,-0.3513,0,0,0,0,0,0,-0.314,-0.315,-0.3238,-0.3199,-0.3211,-0.3237,-0.326,-0.3263,-0.3279,-0.3309,-0.3314,-0.3288,-0.3339,-0.3348,-0.3392,-0.3411,-0.3381,-0.3384,-0.3508,-0.351,-0.3512,-0.352,0,0,0,0,0,0,-0.3136,-0.3149,-0.3166,-0.32,-0.3213,-0.3275,-0.3261,-0.3265,-0.3285,-0.3285,-0.3321,-0.3326,-0.3339,-0.3386,-0.3396,-0.3416,-0.3387,-0.3507,-0.3509,-0.3511,-0.3519,-0.3522,-0.3526,0,0,0,0,0,-0.3132,-0.3167,-0.3167,-0.3177,-0.3235,-0.3276,-0.3284,-0.3297,-0.3287,-0.3305,-0.3323,-0.3325,-0.3407,-0.3391,-0.3401,-0.3423,-0.3506,-0.3508,-0.3511,-0.3517,-0.3522,-0.3526,0,0,0,0,0,0,-0.3137,-0.3172,-0.3172,-0.3219,-0.3244,-0.3277,-0.33,-0.3302,-0.3331,-0.333,-0.3346,-0.3354,-0.3397,-0.3414,-0.3395,-0.3469,-0.3455,-0.346,-0.3456,-0.3461,-0.3464,-0.346,-0.3391,0,0,0,0,0,-0.3143,-0.3173,-0.3202,-0.3241,-0.3253,-0.3274,-0.3292,-0.33,-0.3328,-0.3339,-0.3361,-0.3388,-0.342,-0.3441,-0.3472,-0.352,-0.3528,-0.354,-0.3544,-0.3547,-0.3551,-0.3577,-0.3583,-0.3522,-0.3522,-0.3522,0,0,-0.3157,-0.318,-0.3198,-0.3242,-0.3263,-0.3294,-0.3283,-0.3317,-0.334,-0.3344,-0.3387,-0.3404,-0.3435,-0.3481,-0.3502,-0.3496,-0.357,-0.355,-0.3552,-0.3556,-0.3581,-0.3587,-0.3592,-0.3523,-0.3523,-0.3523,0,0,-0.3199,-0.3219,-0.3252,-0.3273,-0.3303,-0.3316,-0.3324,-0.3356,-0.3367,-0.3409,-0.3412,-0.344,-0.3495,-0.3517,-0.3536,-0.3582,-0.3585,-0.3592,-0.3611,-0.3636,-0.3641,-0.3645,-0.3662,-0.3668,-0.3596,-0.3596,-0.3596,0,-0.3213,-0.3259,-0.327,-0.3303,-0.3322,-0.3325,-0.336,-0.3379,-0.3419,-0.3432,-0.3424,-0.3492,-0.3513,-0.3564,-0.3575,-0.359,-0.36,-0.3589,-0.3639,-0.3644,-0.3648,-0.3664,-0.3671,-0.3597,-0.3597,-0.3597,-0.3596,0,-0.3275,-0.3307,-0.333,-0.3367,-0.3388,-0.3422,-0.3438,-0.3459,-0.3464,-0.3478,-0.352,-0.3546,-0.3581,-0.3594,-0.36,-0.3645,-0.364,-0.3636,-0.3623,-0.3654,-0.367,-0.3677,-0.3598,-0.3598,-0.3597,-0.3597,0,0,-0.3325,-0.3364,-0.3373,-0.3389,-0.3421,-0.3446,-0.3479,-0.3513,-0.353,-0.3557,-0.3585,-0.363,-0.3625,-0.3646,-0.3654,-0.3676,-0.3712,-0.3669,-0.367,-0.3677,-0.3763,-0.3767,-0.3774,-0.3712,-0.3713,-0.3714,-0.376,0,-0.337,-0.3429,-0.3438,-0.349,-0.352,-0.3521,-0.355,-0.3573,-0.3586,-0.3614,-0.3628,-0.366,-0.3651,-0.3664,-0.3685,-0.3703,-0.3729,-0.3699,-0.374,-0.3741,-0.3734,-0.3782,-0.3787,-0.383,-0.3767,-0.3768,-0.3768,0,-0.3433,-0.3459,-0.3513,-0.3539,-0.3552,-0.3578,-0.3609,-0.3634,-0.366,-0.3668,-0.369,-0.3695,-0.3729,-0.3713,-0.3761,-0.3741,-0.3757,-0.3768,-0.377,-0.3776,-0.3758,-0.3791,-0.3844,-0.3851,-0.3778,-0.3777,-0.3777,0,-0.3464,-0.3513,-0.3551,-0.3564,-0.3597,-0.3615,-0.3629,-0.3654,-0.3672,-0.3699,-0.3712,-0.3742,-0.376,-0.3783,-0.3796,-0.3783,-0.3844,-0.3829,-0.3852,-0.3852,-0.3867,-0.3866,-0.3924,-0.3875,-0.3875,-0.3875,-0.3875,0,-0.3515,-0.3549,-0.3565,-0.3589,-0.3626,-0.3636,-0.3673,-0.3687,-0.3708,-0.3735,-0.3738,-0.3763,-0.3778,-0.3805,-0.3816,-0.3854,-0.3862,-0.387,-0.3872,-0.387,-0.3869,-0.3883,-0.3881,-0.3876,-0.3876,-0.3876,-0.3875,0,-0.3558,-0.357,-0.3612,-0.3638,-0.3645,-0.3672,-0.3694,-0.3717,-0.3729,-0.3763,-0.3771,-0.379,-0.3822,-0.3837,-0.3877,-0.3884,-0.3928,-0.3928,-0.3919,-0.392,-0.3943,-0.3941,-0.4014,-0.4024,-0.3966,-0.3967,-0.3967,0,-0.3591,-0.3616,-0.3644,-0.3661,-0.3675,-0.3704,-0.3722,-0.3732,-0.3752,-0.3782,-0.3801,-0.3833,-0.3859,-0.391,-0.3928,-0.3959,-0.396,-0.3983,-0.3965,-0.3962,-0.3961,-0.396,-0.3963,-0.3987,-0.3988,-0.3988,-0.3989,0,-0.3647,-0.3652,-0.3678,-0.3706,-0.3727,-0.375,-0.3773,-0.3787,-0.38,-0.3822,-0.3854,-0.3874,-0.3913,-0.3945,-0.3976,-0.3991,-0.3993,-0.3994,-0.4001,-0.4,-0.3994,-0.3998,-0.3929,-0.3993,-0.3992,-0.3992,-0.3992,-0.3992,-0.3687,-0.3709,-0.3731,-0.376,-0.3777,-0.3797,-0.382,-0.3834,-0.386,-0.3892,-0.3896,-0.3931,-0.3954,-0.3996,-0.4012,-0.4039,-0.4034,-0.4044,-0.4047,-0.4049,-0.4051,-0.3988,-0.4045,-0.4044,-0.4044,-0.4044,-0.4044,0,-0.3745,-0.3758,-0.3784,-0.3814,-0.3837,-0.3833,-0.3857,-0.3876,-0.3906,-0.3927,-0.3952,-0.3988,-0.4018,-0.4037,-0.4067,-0.4085,-0.4087,-0.4093,-0.4093,-0.4096,-0.4054,-0.4045,-0.4092,-0.4092,-0.4092,-0.4092,-0.4092,-0.4091,-0.3777,-0.3814,-0.3821,-0.3866,-0.388,-0.3912,-0.3926,-0.3945,-0.3961,-0.4001,-0.4025,-0.4037,-0.4057,-0.4088,-0.4116,-0.412,-0.4132,-0.4139,-0.4144,-0.4104,-0.4099,-0.4095,-0.4087,-0.4141,-0.4141,-0.4184,-0.4184,-0.4185]}]]